Voltar ao catálogo

STARLINK-32707

AtivoComunicaçõesVLEO
NORAD 62478·PAYLOAD·🇺🇸 United States

Lançado Dec 31, 2024 de Cape Canaveral Space Force Station

Loading…

Próximas Passagens (próximas 24 horas)

TLE

AtualizadoSource: CelesTrak SupGP

Época: Sep 14, 2026, 22:47 UTC

1 62478C 24254S   26257.94979167  .00015634  00000+0  56620-3 0  2575
2 62478  43.0017  27.5373 0001529 273.5193 233.2125 15.27575053    17

Acompanhe STARLINK-32707 em tempo real com AllMySat

Download on the App Store